KI8L Weather Reports


time (UTC)temp
F
wind
direction
speed
knots
gust
knots
rain 1hr
in
rain 24hr
in
rain mn
in
humidity
%
barometer
mb
20260504033555 46 187 1.7 1.7 0.00 0.00 0.00 79 1014.9
20260504033052 47 187 1.7 1.7 0.00 0.00 0.00 79 1014.7
20260504032549 48 193 1.7 1.7 0.00 0.00 0.00 77 1014.8
20260504032046 49 187 3.5 3.5 0.00 0.00 0.00 75 1014.9
20260504031543 49 185 1.7 1.7 0.00 0.00 0.00 77 1015.0
20260504031038 49 191 1.7 1.7 0.00 0.00 0.00 76 1014.8
20260504030536 49 191 1.7 2.6 0.00 0.00 0.00 75 1015.0
20260504030032 49 189 0.9 1.7 0.00 0.00 0.00 77 1015.0
20260504025530 49 189 1.7 2.6 0.00 0.00 0.00 74 1015.2
20260504025026 50 189 1.7 2.6 0.00 0.00 0.00 74 1015.2
20260504024523 50 189 1.7 1.7 0.00 0.00 0.00 73 1015.1
20260504024020 50 185 3.5 3.5 0.00 0.00 0.00 73 1015.3
20260504023517 50 206 2.6 2.6 0.00 0.00 0.00 72 1015.0
20260504023013 50 188 2.6 2.6 0.00 0.00 0.00 72 1015.3
20260504022508 50 169 3.5 3.5 0.00 0.00 0.00 71 1015.1
20260504022005 50 187 3.5 3.5 0.00 0.00 0.00 71 1015.2
20260504021503 50 174 2.6 2.6 0.00 0.00 0.00 73 1015.2
20260504021000 50 195 3.5 3.5 0.00 0.00 0.00 71 1015.2
20260504020456 50 179 3.5 5.2 0.00 0.00 0.00 70 1015.3
20260504015953 50 195 4.3 5.2 0.00 0.00 0.00 69 1015.3
20260504015449 51 161 6.1 8.7 0.00 0.00 0.00 69 1015.3
20260504014945 51 187 3.5 5.2 0.00 0.00 0.00 70 1015.3
20260504014441 51 186 3.5 3.5 0.00 0.00 0.00 67 1015.2
20260504013938 51 177 5.2 7.0 0.00 0.00 0.00 68 1015.4
20260504013437 51 171 6.1 7.8 0.00 0.00 0.00 66 1015.4
20260504012933 51 236 1.7 2.6 0.00 0.00 0.00 67 1015.6
20260504012431 51 244 6.1 7.0 0.00 0.00 0.00 65 1015.6
20260504011928 51 183 7.0 9.6 0.00 0.00 0.00 66 1015.5
20260504011425 51 228 3.5 5.2 0.00 0.00 0.00 66 1015.3
20260504010920 51 230 3.5 3.5 0.00 0.00 0.00 66 1015.4
20260504010417 51 227 2.6 2.6 0.00 0.00 0.00 66 1015.5
20260504005913 52 166 7.0 8.7 0.00 0.00 0.00 65 1015.3
20260504005410 52 240 3.5 5.2 0.00 0.00 0.00 64 1015.4
20260504004908 53 236 3.5 5.2 0.00 0.00 0.00 64 1015.2
20260504004405 53 246 2.6 3.5 0.00 0.00 0.00 61 1015.3
20260504003901 54 234 2.6 3.5 0.00 0.00 0.00 58 1015.0
20260504003358 53 155 8.7 13.0 0.00 0.00 0.00 52 1015.0
20260504002855 53 179 2.6 2.6 0.00 0.00 0.00 54 1014.6
20260504002351 54 194 1.7 2.6 0.00 0.00 0.00 52 1014.7
20260504001849 54 182 3.5 3.5 0.00 0.00 0.00 50 1014.7
20260504001346 54 184 5.2 6.1 0.00 0.00 0.00 51 1014.4
20260504000843 55 188 2.6 3.5 0.00 0.00 0.00 53 1014.7
20260504000340 54 177 4.3 6.1 0.00 0.00 0.00 51 1014.5
20260503235838 55 198 2.6 2.6 0.00 0.00 0.00 51 1014.7
20260503235335 56 201 3.5 3.5 0.00 0.00 0.00 50 1014.5
20260503234832 56 218 3.5 5.2 0.00 0.00 0.00 49 1014.7
20260503234330 56 181 9.6 12.2 0.00 0.00 0.00 46 1014.7
20260503233828 57 185 5.2 7.8 0.00 0.00 0.00 47 1014.8
20260503233323 57 190 5.2 7.0 0.00 0.00 0.00 48 1014.9
20260503232820 57 190 2.6 2.6 0.00 0.00 0.00 49 1014.9
20260503232318 56 216 2.6 3.5 0.00 0.00 0.00 48 1015.0
20260503231815 57 200 8.7 11.3 0.00 0.00 0.00 48 1014.9
20260503231312 57 191 7.8 8.7 0.00 0.00 0.00 47 1014.9
20260503230808 57 205 8.7 9.6 0.00 0.00 0.00 46 1015.1
20260503230305 57 202 4.3 6.1 0.00 0.00 0.00 48 1014.9
20260503225803 57 210 5.2 7.0 0.00 0.00 0.00 47 1014.9
20260503225258 57 187 3.5 5.2 0.00 0.00 0.00 47 1015.0
20260503224755 57 182 7.0 7.0 0.00 0.00 0.00 44 1015.0
20260503224252 57 223 4.3 6.1 0.00 0.00 0.00 48 1015.0
20260503223750 58 178 6.1 7.8 0.00 0.00 0.00 47 1015.2
20260503223248 58 188 7.0 7.8 0.00 0.00 0.00 43 1015.1
20260503222743 58 219 7.0 7.8 0.00 0.00 0.00 46 1015.3
20260503222241 58 238 7.0 7.8 0.00 0.00 0.00 45 1015.2
20260503221740 58 220 4.3 5.2 0.00 0.00 0.00 45 1015.4
20260503221237 58 252 2.6 5.2 0.00 0.00 0.00 45 1015.2
20260503220733 58 213 3.5 5.2 0.00 0.00 0.00 44 1015.2
20260503220231 58 243 4.3 5.2 0.00 0.00 0.00 46 1015.1
20260503215727 59 216 4.3 6.1 0.00 0.00 0.00 46 1015.1
20260503215224 58 216 3.5 5.2 0.00 0.00 0.00 46 1015.3
20260503214723 58 248 4.3 5.2 0.00 0.00 0.00 45 1015.4
20260503214219 59 160 4.3 6.1 0.00 0.00 0.00 46 1015.4
20260503213717 59 253 3.5 3.5 0.00 0.00 0.00 45 1015.4
20260503213214 59 177 9.6 12.2 0.00 0.00 0.00 44 1015.3
20260503212711 58 10 3.5 3.5 0.00 0.00 0.00 46 1015.4
20260503212208 58 198 5.2 7.8 0.00 0.00 0.00 44 1015.5
20260503211706 59 163 7.8 12.2 0.00 0.00 0.00 43 1015.4
20260503211201 59 227 5.2 7.0 0.00 0.00 0.00 45 1015.3
20260503210658 59 250 5.2 7.8 0.00 0.00 0.00 45 1015.5
20260503210155 59 259 5.2 7.0 0.00 0.00 0.00 44 1015.5
20260503205650 59 196 9.6 11.3 0.00 0.00 0.00 45 1015.5
20260503205146 60 178 4.3 6.1 0.00 0.00 0.00 45 1015.5
20260503204643 59 235 4.3 6.1 0.00 0.00 0.00 43 1015.4
20260503204141 59 249 3.5 5.2 0.00 0.00 0.00 46 1015.5
20260503203638 60 236 5.2 7.0 0.00 0.00 0.00 44 1015.6
20260503203136 60 249 5.2 7.0 0.00 0.00 0.00 41 1015.7
20260503202633 60 236 5.2 6.1 0.00 0.00 0.00 42 1015.7
20260503202131 59 229 5.2 6.1 0.00 0.00 0.00 43 1015.7
20260503201628 59 187 5.2 7.0 0.00 0.00 0.00 50 1015.8
20260503201125 61 233 6.1 7.8 0.00 0.00 0.00 43 1015.8
20260503200621 59 198 5.2 7.0 0.00 0.00 0.00 43 1015.9
20260503200118 59 221 4.3 5.2 0.00 0.00 0.00 43 1016.0
20260503195615 58 220 5.2 7.0 0.00 0.00 0.00 47 1016.0
20260503195112 58 209 9.6 12.2 0.00 0.00 0.00 43 1016.1
20260503194610 59 197 5.2 7.0 0.00 0.00 0.00 44 1016.1
20260503194109 59 231 4.3 6.1 0.00 0.00 0.00 43 1016.3
20260503193607 60 188 8.7 12.2 0.00 0.00 0.00 44 1016.2
20260503193102 60 175 8.7 11.3 0.00 0.00 0.00 43 1016.4
20260503192558 59 207 2.6 3.5 0.00 0.00 0.00 44 1016.5
20260503192054 58 168 8.7 11.3 0.00 0.00 0.00 46 1016.6
20260503191551 59 187 5.2 8.7 0.00 0.00 0.00 46 1016.6
20260503191048 61 227 5.2 7.0 0.00 0.00 0.00 41 1016.9
20260503190545 59 164 3.5 5.2 0.00 0.00 0.00 47 1016.8
20260503190042 59 229 4.3 6.1 0.00 0.00 0.00 45 1016.8
20260503185538 59 225 7.8 11.3 0.00 0.00 0.00 45 1017.0
20260503185038 58 230 6.1 7.0 0.00 0.00 0.00 47 1017.0
20260503184534 58 203 11.3 15.6 0.00 0.00 0.00 48 1017.0
20260503184031 60 172 7.8 12.2 0.00 0.00 0.00 43 1017.0
20260503183528 60 208 2.6 2.6 0.00 0.00 0.00 48 1017.0
20260503183025 59 235 3.5 3.5 0.00 0.00 0.00 45 1017.0
20260503182523 60 261 3.5 3.5 0.00 0.00 0.00 42 1017.4
20260503182021 60 243 2.6 3.5 0.00 0.00 0.00 46 1017.5
20260503181518 60 223 6.1 7.8 0.00 0.00 0.00 48 1017.6
20260503181014 59 178 8.7 11.3 0.00 0.00 0.00 45 1017.6
20260503180511 60 217 3.5 5.2 0.00 0.00 0.00 43 1017.5
20260503180009 59 226 4.3 7.0 0.00 0.00 0.00 48 1017.6
20260503175506 58 247 2.6 2.6 0.00 0.00 0.00 48 1017.7
20260503175003 58 227 4.3 6.1 0.00 0.00 0.00 46 1017.7
20260503174500 59 247 2.6 3.5 0.00 0.00 0.00 44 1017.7
20260503173956 59 186 7.0 11.3 0.00 0.00 0.00 50 1017.9
20260503173451 59 222 2.6 3.5 0.00 0.00 0.00 44 1018.0
20260503172948 58 229 4.3 5.2 0.00 0.00 0.00 44 1018.0
20260503172446 57 230 5.2 7.8 0.00 0.00 0.00 48 1017.8
20260503171942 60 189 3.5 5.2 0.00 0.00 0.00 52 1017.9
20260503171439 58 249 5.2 7.0 0.00 0.00 0.00 50 1018.1
20260503170937 59 205 5.2 7.0 0.00 0.00 0.00 47 1018.2
20260503170432 59 218 3.5 5.2 0.00 0.00 0.00 49 1018.0
20260503150825 54 234 4.3 5.2 0.00 0.00 0.00 50 1018.9
20260503150321 55 219 4.3 6.1 0.00 0.00 0.00 50 1019.0
20260503140245 51 154 2.6 7.0 0.00 0.00 0.00 56 1019.4
20260503131215 46 201 1.7 2.6 0.00 0.00 0.00 68 1019.6
20260503130712 45 190 3.5 3.5 0.00 0.00 0.00 66 1019.7
20260503130210 45 182 5.2 6.1 0.00 0.00 0.00 68 1019.8
20260503120135 33 277 0.9 0.9 0.00 0.00 0.00 99 1019.5
20260503110603 28 288 0.0 0.0 0.00 0.00 0.00 99 1019.1
20260503090450 29 288 0.0 0.0 0.00 0.00 0.00 99 1018.8
20260503081416 30 288 0.0 0.0 0.00 0.00 0.00 99 1019.0
20260503080913 30 288 0.0 0.0 0.00 0.00 0.00 99 1019.0
20260503080410 30 288 0.0 0.0 0.00 0.00 0.00 99 1018.9
20260503072846 30 288 0.0 0.0 0.00 0.00 0.00 99 1018.9
20260503072343 30 288 0.0 0.0 0.00 0.00 0.00 99 1018.9
20260503071840 30 288 0.0 0.0 0.00 0.00 0.00 99 1018.9
20260503071337 30 288 0.0 0.0 0.00 0.00 0.00 99 1019.0
20260503070833 31 288 0.0 0.0 0.00 0.00 0.00 99 1018.8
20260503070331 31 288 0.0 0.0 0.00 0.00 0.00 99 1018.8
20260503060302 33 288 0.0 0.0 0.00 0.00 0.00 99 1018.9
20260503054749 33 288 0.0 0.0 0.00 0.00 0.00 99 1019.3
20260503054246 33 288 0.0 0.0 0.00 0.00 0.00 99 1019.2
20260503053744 33 288 0.0 0.0 0.00 0.00 0.00 99 1019.2
20260503053243 34 288 0.0 0.0 0.00 0.00 0.00 99 1019.1
20260503052738 34 288 0.0 0.0 0.00 0.00 0.00 99 1019.2
20260503052235 34 288 0.0 0.0 0.00 0.00 0.00 99 1019.0
20260503051730 34 288 0.0 0.0 0.00 0.00 0.00 99 1019.3
20260503051228 35 288 0.0 0.0 0.00 0.00 0.00 99 1019.2
20260503050724 35 288 0.0 0.0 0.00 0.00 0.00 98 1019.1
20260503050221 35 288 0.0 0.0 0.00 0.00 0.00 98 1019.1
20260503045719 36 288 0.0 0.0 0.00 0.00 0.00 98 1019.0
20260503045216 37 288 0.0 0.0 0.00 0.00 0.00 98 1019.3
20260503044712 37 288 0.0 0.0 0.00 0.00 0.00 98 1019.2
20260503044210 37 288 0.0 0.0 0.00 0.00 0.00 97 1019.2
20260503043706 38 288 0.0 0.0 0.00 0.00 0.00 97 1019.2
20260503043204 38 287 0.0 0.0 0.00 0.00 0.00 98 1019.2
20260503042659 38 287 0.9 0.9 0.00 0.00 0.00 97 1019.3
20260503042156 38 287 0.0 0.9 0.00 0.00 0.00 98 1019.2
20260503041652 38 287 0.9 0.9 0.00 0.00 0.00 98 1019.2
20260503041150 38 288 0.0 0.0 0.00 0.00 0.00 98 1019.3
20260503040648 38 287 0.0 0.0 0.00 0.00 0.00 98 1019.3
20260503040145 38 287 0.9 0.9 0.00 0.00 0.00 98 1019.3
20260503035641 38 288 0.0 0.0 0.00 0.00 0.00 98 1019.4
20260503035139 38 288 0.0 0.0 0.00 0.00 0.00 98 1019.3
20260503034636 38 287 0.0 0.0 0.00 0.00 0.00 98 1019.5
20260503034133 38 287 0.0 0.0 0.00 0.00 0.00 98 1019.2